Memphis, TN

2:00 PM CST on November 21, 2017 (GMT -0600)
Memphis International

Weather History for KMEM - May, 2014

Change the Weather History Date:

Friday, May 9, 2014

  Actual Average Record
Temperature  
Mean Temperature 71 °F 70 °F  
Max Temperature 77 °F 79 °F 92 °F (1986)
Min Temperature 65 °F 60 °F 44 °F (1923)
Degree Days  
Heating Degree Days 0 1  
Month to date heating degree days 14 10  
Since 1 July heating degree days 3449 2955  
Cooling Degree Days 6 6  
Month to date cooling degree days 54 43  
Year to date cooling degree days 110 138  
Growing Degree Days 20 (Base 50)    
Moisture  
Dew Point 63 °F    
Average Humidity 74    
Maximum Humidity 87    
Minimum Humidity 60    
Precipitation  
Precipitation 0.35 in 0.18 in 3.56 in (1958)
Month to date precipitation 0.37 1.69  
Year to date precipitation 22.01 20.72  
Snow  
Snow 0.00 in 0.00 in - ()
Month to date snowfall 0.0 0.0  
Since 1 July snowfall 0.8 3.8  
Snow Depth 0.00 in    
Sea Level Pressure  
Sea Level Pressure 29.95 in    
Wind  
Wind Speed 12 mph (SSW)    
Max Wind Speed 23 mph    
Max Gust Speed 28 mph    
Visibility 9 miles    
Events Rain    
T = Trace of Precipitation, MM = Missing Value Source: NWS Daily Summary

Daily Weather History Graph

Daily Weather History Graph

Search for Another Location

Airport or City:

Trip Planner

Search our weather history database for the weather conditions in past years. The results will help you decide how hot, cold, wet, or windy it might be!

Date:

Astronomy

May. 09, 2014 Rise Set
Actual Time 6:01 AM CDT 7:51 PM CDT
Civil Twilight 5:33 AM CDT 8:19 PM CDT
Nautical Twilight 5:00 AM CDT 8:53 PM CDT
Astronomical Twilight 4:24 AM CDT 9:29 PM CDT
Moon 3:00 PM CDT (5/9) 2:51 AM CDT (5/9)
Length of Visible Light 14h 46m
Length of Day
13h 50m
Waxing Gibbous, 74% of the Moon is Illuminated
May 9
Waxing Gibbous
May 14
Full
May 21
Last Quarter
May 28
New
Jun 5
First Quarter

Hourly Weather History & Observations

Time (CDT) Temp. Dew Point Humidity Pressure Visibility Wind Dir Wind Speed Gust Speed Precip Events Conditions
12:54 AM 75.9 °F 61.0 °F 60% 29.91 in 10.0 mi South 15.0 mph 23.0 mph N/A   Overcast
1:54 AM 73.9 °F 62.1 °F 66% 29.90 in 10.0 mi SSW 15.0 mph 23.0 mph 0.00 in   Overcast
2:54 AM 71.1 °F 64.9 °F 81% 29.90 in 6.0 mi South 9.2 mph - 0.01 in Rain Light Rain
3:28 AM 69.8 °F 64.4 °F 83% 29.94 in 5.0 mi WSW 6.9 mph - 0.07 in Rain Rain
3:36 AM 69.8 °F 66.2 °F 88% 29.94 in 4.0 mi WNW 10.4 mph - 0.08 in Rain Light Rain
3:46 AM 66.2 °F 62.6 °F 88% 29.94 in 4.0 mi West 8.1 mph - 0.11 in Rain Rain
3:54 AM 66.2 °F 62.6 °F 88% 29.92 in 5.0 mi Variable 6.9 mph - N/A Rain Light Rain
3:58 AM 66.2 °F 62.6 °F 88% 29.92 in 6.0 mi NNW 8.1 mph - 0.00 in Rain Light Rain
4:10 AM 64.4 °F 62.6 °F 94% 29.91 in 6.0 mi North 3.5 mph - 0.04 in Rain Light Rain
4:49 AM 66.2 °F 62.6 °F 88% 29.87 in 10.0 mi ESE 16.1 mph 21.9 mph 0.18 in Rain Light Rain
4:54 AM 66.0 °F 63.0 °F 90% 29.86 in 10.0 mi ESE 10.4 mph 21.9 mph 0.18 in Rain Light Rain
5:54 AM 66.0 °F 63.0 °F 90% 29.91 in 10.0 mi SSE 4.6 mph - 0.02 in   Overcast
6:07 AM 66.2 °F 62.6 °F 88% 29.93 in 10.0 mi Calm Calm - N/A   Overcast
6:22 AM 66.2 °F 64.4 °F 94% 29.95 in 9.0 mi SW 6.9 mph - N/A   Overcast
6:54 AM 68.0 °F 64.9 °F 90% 29.94 in 9.0 mi SW 8.1 mph - N/A   Mostly Cloudy
7:43 AM 68.0 °F 64.4 °F 88% 29.97 in 9.0 mi SW 6.9 mph 16.1 mph N/A   Mostly Cloudy
7:54 AM 68.0 °F 64.9 °F 90% 29.97 in 9.0 mi SSW 10.4 mph - N/A   Mostly Cloudy
8:10 AM 68.0 °F 64.4 °F 88% 29.98 in 10.0 mi SSW 6.9 mph 20.7 mph N/A   Overcast
8:28 AM 66.2 °F 62.6 °F 88% 29.98 in 10.0 mi SSW 12.7 mph - N/A   Overcast
8:47 AM 66.2 °F 62.6 °F 88% 29.99 in 10.0 mi SSW 9.2 mph - N/A   Overcast
8:54 AM 66.9 °F 63.0 °F 87% 29.99 in 10.0 mi SSW 9.2 mph - N/A   Overcast
9:20 AM 68.0 °F 62.6 °F 83% 30.00 in 10.0 mi SSW 9.2 mph 18.4 mph N/A   Overcast
9:33 AM 68.0 °F 62.6 °F 83% 30.01 in 10.0 mi SSW 10.4 mph 18.4 mph N/A   Overcast
9:54 AM 68.0 °F 63.0 °F 84% 30.00 in 10.0 mi SSW 9.2 mph - N/A   Overcast
10:06 AM 69.8 °F 62.6 °F 78% 30.01 in 10.0 mi SSW 11.5 mph - N/A   Overcast
10:29 AM 69.8 °F 62.6 °F 78% 30.01 in 10.0 mi SSW 8.1 mph - N/A   Overcast
10:54 AM 70.0 °F 61.0 °F 73% 29.99 in 10.0 mi SSW 9.2 mph - N/A   Overcast
11:54 AM 73.0 °F 63.0 °F 71% 29.99 in 10.0 mi South 9.2 mph - N/A   Overcast
12:54 PM 75.0 °F 64.9 °F 71% 29.99 in 10.0 mi SSW 12.7 mph 23.0 mph N/A   Overcast
1:54 PM 73.9 °F 64.0 °F 71% 29.97 in 10.0 mi SSW 15.0 mph - N/A   Overcast
2:54 PM 73.9 °F 64.0 °F 71% 29.95 in 10.0 mi South 17.3 mph - N/A   Overcast
3:54 PM 75.9 °F 64.0 °F 67% 29.93 in 10.0 mi SSW 19.6 mph 27.6 mph N/A   Overcast
4:54 PM 73.9 °F 63.0 °F 68% 29.92 in 10.0 mi SSW 13.8 mph 20.7 mph N/A   Overcast
5:54 PM 73.9 °F 63.0 °F 68% 29.91 in 10.0 mi South 15.0 mph - N/A   Overcast
6:54 PM 73.0 °F 63.0 °F 71% 29.91 in 10.0 mi South 17.3 mph 25.3 mph N/A   Overcast
7:05 PM 71.6 °F 62.6 °F 73% 29.92 in 10.0 mi South 15.0 mph 23.0 mph N/A   Overcast
7:54 PM 72.0 °F 63.0 °F 73% 29.92 in 10.0 mi South 16.1 mph 21.9 mph N/A   Overcast
8:54 PM 72.0 °F 64.0 °F 76% 29.94 in 10.0 mi South 12.7 mph - N/A   Overcast
9:54 PM 71.1 °F 63.0 °F 75% 29.94 in 10.0 mi South 11.5 mph - N/A   Overcast
10:54 PM 70.0 °F 62.1 °F 76% 29.96 in 10.0 mi South 12.7 mph - N/A   Overcast
11:47 PM 69.8 °F 62.6 °F 78% 29.96 in 10.0 mi SSW 11.5 mph - N/A   Mostly Cloudy
11:54 PM 69.1 °F 62.1 °F 78% 29.95 in 10.0 mi South 8.1 mph - N/A   Mostly Cloudy